| ตารางข้อมูล | ค้นข้อมูล1 | ค้นข้อมูล2 | ค่าสูงสุด-ต่ำสุด |  

Select Sensor -->| 20402 | 4529A | 4529C | 4529D | 89M1A | 89M1B | หน้าจอย่อ | 4529 |
ข้อมูลรวม (ยังไม่ได้เลือก Sensor)

IDDate TimeRoom  Temp  Humidity RSSI Time
 1152529  2026-09-02 11:35:25  89M1A  34.4 °C  65.5 %   11:35 
 1152528  2026-09-02 11:34:26  89M1B  32.8 °C  68.3 %   11:34 
 1152527  2026-09-02 11:33:10  20402  30.5 °C  44.1 %   11:33 
 1152526  2026-09-02 11:31:31  4529A  29.8 °C  62.2 %   11:31 
 1152525  2026-09-02 11:28:15  4529C  31.5 °C  51.8 %   11:28 
 1152524  2026-09-02 11:27:23  4529D  30.4 °C  69.8 %   11:27 
 1152523  2026-09-02 11:25:47  89M1A  34.5 °C  65.0 %   11:25 
 1152522  2026-09-02 11:24:47  89M1B  32.8 °C  68.0 %   11:24 
 1152521  2026-09-02 11:23:00  20402  30.4 °C  43.8 %   11:23 
 1152520  2026-09-02 11:21:28  4529A  29.8 °C  60.3 %   11:21 
 1152519  2026-09-02 11:18:13  4529C  31.4 °C  51.4 %   11:18 
 1152518  2026-09-02 11:17:50  4529D  30.8 °C  70.2 %   11:17 
 1152517  2026-09-02 11:16:11  89M1A  35.3 °C  60.2 %   11:16 
 1152516  2026-09-02 11:15:08  89M1B  32.6 °C  69.1 %   11:15 
 1152515  2026-09-02 11:12:49  20402  30.4 °C  43.5 %   11:12 
 1152514  2026-09-02 11:11:26  4529A  29.7 °C  59.2 %   11:11 
 1152513  2026-09-02 11:08:16  4529D  30.7 °C  70.3 %   11:08 
 1152512  2026-09-02 11:08:10  4529C  31.4 °C  50.8 %   11:08 
 1152511  2026-09-02 11:06:33  89M1A  35.3 °C  59.5 %   11:06 
 1152510  2026-09-02 11:05:29  89M1B  32.5 °C  69.3 %   11:05 
 1152509  2026-09-02 11:02:39  20402  30.3 °C  43.1 %   11:02 
 1152508  2026-09-02 11:01:23  4529A  29.5 °C  58.1 %   11:01 
 1152507  2026-09-02 10:58:43  4529D  30.7 °C  69.5 %   10:58 
 1152506  2026-09-02 10:58:08  4529C  31.3 °C  50.5 %   10:58 
 1152505  2026-09-02 10:56:55  89M1A  34.8 °C  62.2 %   10:56 
 1152504  2026-09-02 10:55:50  89M1B  32.4 °C  69.7 %   10:55 
 1152503  2026-09-02 10:52:29  20402  30.2 °C  42.9 %   10:52 
 1152502  2026-09-02 10:51:21  4529A  29.5 °C  60.8 %   10:51 
 1152501  2026-09-02 10:49:09  4529D  30.7 °C  69.6 %   10:49 
 1152500  2026-09-02 10:48:05  4529C  31.3 °C  50.1 %   10:48 
 1152499  2026-09-02 10:47:19  89M1A  34.8 °C  63.7 %   10:47 
 1152498  2026-09-02 10:46:10  89M1B  32.3 °C  70.2 %   10:46 
 1152497  2026-09-02 10:42:19  20402  30.2 °C  42.5 %   10:42 
 1152496  2026-09-02 10:41:18  4529A  29.5 °C  63.0 %   10:41 
 1152495  2026-09-02 10:39:36  4529D  30.6 °C  70.9 %   10:39 
 1152494  2026-09-02 10:38:03  4529C  31.3 °C  49.8 %   10:38 
 1152493  2026-09-02 10:37:42  89M1A  34.6 °C  63.6 %   10:37 
 1152492  2026-09-02 10:36:34  89M1B  32.0 °C  70.3 %   10:36 
 1152491  2026-09-02 10:32:09  20402  30.2 °C  42.0 %   10:32 
 1152490  2026-09-02 10:31:16  4529A  29.7 °C  65.0 %   10:31 
 1152489  2026-09-02 10:30:03  4529D  30.9 °C  71.0 %   10:30 
 1152488  2026-09-02 10:28:03  89M1A  33.8 °C  64.8 %   10:28 
 1152487  2026-09-02 10:28:00  4529C  31.2 °C  49.3 %   10:28 
 1152486  2026-09-02 10:26:52  89M1B  31.9 °C  70.3 %   10:26 
 1152485  2026-09-02 10:21:59  20402  30.0 °C  41.5 %   10:21 
 1152484  2026-09-02 10:21:14  4529A  29.6 °C  63.1 %   10:21 
 1152483  2026-09-02 10:20:29  4529D  30.6 °C  70.8 %   10:20 
 1152482  2026-09-02 10:18:24  89M1A  33.5 °C  64.2 %   10:18 
 1152481  2026-09-02 10:17:58  4529C  31.2 °C  48.8 %   10:17 
 1152480  2026-09-02 10:17:13  89M1B  31.9 °C  70.4 %   10:17 
 1152479  2026-09-02 10:11:49  20402  29.9 °C  41.0 %   10:11 
 1152478  2026-09-02 10:11:10  4529A  29.6 °C  60.1 %   10:11 
 1152477  2026-09-02 10:10:56  4529D  30.5 °C  71.0 %   10:10 
 1152476  2026-09-02 10:08:46  89M1A  33.1 °C  65.9 %   10:08 
 1152475  2026-09-02 10:07:56  4529C  31.2 °C  48.5 %   10:07 
 1152474  2026-09-02 10:07:34  89M1B  31.8 °C  70.3 %   10:07 
 1152473  2026-09-02 10:01:39  20402  29.9 °C  41.1 %   10:01 
 1152472  2026-09-02 10:01:23  4529D  30.4 °C  70.9 %   10:01 
 1152471  2026-09-02 10:01:08  4529A  29.6 °C  64.1 %   10:01 
 1152470  2026-09-02 09:59:07  89M1A  32.8 °C  67.7 %   09:59 
 1152469  2026-09-02 09:58:01  89M1B  31.6 °C  70.3 %   09:58 
 1152468  2026-09-02 09:57:53  4529C  31.1 °C  48.5 %   09:57 
 1152467  2026-09-02 09:51:50  4529D  30.3 °C  71.1 %   09:51 
 1152466  2026-09-02 09:51:26  20402  29.7 °C  40.2 %   09:51 
 1152465  2026-09-02 09:51:05  4529A  29.8 °C  65.4 %   09:51 
 1152464  2026-09-02 09:49:29  89M1A  32.3 °C  68.3 %   09:49 
 1152463  2026-09-02 09:48:16  89M1B  31.8 °C  70.3 %   09:48 
 1152462  2026-09-02 09:47:51  4529C  31.0 °C  49.0 %   09:47 
 1152461  2026-09-02 09:42:16  4529D  30.3 °C  70.4 %   09:42 
 1152460  2026-09-02 09:41:16  20402  29.4 °C  39.9 %   09:41 
 1152459  2026-09-02 09:41:03  4529A  29.8 °C  61.3 %   09:41 
 1152458  2026-09-02 09:39:52  89M1A  32.4 °C  68.8 %   09:39 
 1152457  2026-09-02 09:38:37  89M1B  31.5 °C  70.4 %   09:38 
 1152456  2026-09-02 09:37:48  4529C  31.0 °C  48.5 %   09:37 
 1152455  2026-09-02 09:32:43  4529D  30.3 °C  70.6 %   09:32 
 1152454  2026-09-02 09:31:06  20402  28.8 °C  40.3 %   09:31 
 1152453  2026-09-02 09:31:00  4529A  29.6 °C  64.0 %   09:31 
 1152452  2026-09-02 09:30:14  89M1A  32.6 °C  66.5 %   09:30 
 1152451  2026-09-02 09:28:58  89M1B  31.4 °C  70.6 %   09:28 
 1152450  2026-09-02 09:27:46  4529C  31.0 °C  48.9 %   09:27 
 1152449  2026-09-02 09:23:10  4529D  30.3 °C  70.7 %   09:23 
 1152448  2026-09-02 09:20:58  4529A  29.8 °C  65.8 %   09:20 
 1152447  2026-09-02 09:20:56  20402  27.6 °C  41.8 %   09:20 
 1152446  2026-09-02 09:20:36  89M1A  32.0 °C  71.6 %   09:20 
 1152445  2026-09-02 09:19:19  89M1B  31.4 °C  70.7 %   09:19 
 1152444  2026-09-02 09:17:43  4529C  30.9 °C  49.1 %   09:17 
 1152443  2026-09-02 09:13:38  4529D  30.5 °C  70.3 %   09:13 
 1152442  2026-09-02 09:10:58  89M1A  31.7 °C  71.7 %   09:10 
 1152441  2026-09-02 09:10:56  4529A  29.9 °C  61.5 %   09:10 
 1152440  2026-09-02 09:10:46  20402  27.7 °C  42.6 %   09:10 
 1152439  2026-09-02 09:09:41  89M1B  31.1 °C  70.4 %   09:09 
 1152438  2026-09-02 09:07:41  4529C  30.8 °C  49.2 %   09:07 
 1152437  2026-09-02 09:04:05  4529D  30.3 °C  70.1 %   09:04 
 1152436  2026-09-02 09:01:20  89M1A  31.8 °C  72.3 %   09:01 
 1152435  2026-09-02 09:00:52  4529A  29.6 °C  64.8 %   09:00 
 1152434  2026-09-02 09:00:36  20402  28.1 °C  43.7 %   09:00 
 1152433  2026-09-02 09:00:02  89M1B  31.3 °C  70.4 %   09:00 
 1152432  2026-09-02 08:57:38  4529C  30.8 °C  49.3 %   08:57 
 1152431  2026-09-02 08:54:33  4529D  30.4 °C  70.1 %   08:54 
 1152430  2026-09-02 08:51:40  89M1A  30.6 °C  74.6 %   08:51 
 1152429  2026-09-02 08:50:50  4529A  30.0 °C  66.1 %   08:50 
 1152428  2026-09-02 08:50:26  20402  28.4 °C  45.2 %   08:50 
 1152427  2026-09-02 08:50:24  89M1B  31.3 °C  70.7 %   08:50 
 1152426  2026-09-02 08:47:36  4529C  30.8 °C  49.3 %   08:47 
 1152425  2026-09-02 08:45:00  4529D  30.4 °C  70.1 %   08:45 
 1152424  2026-09-02 08:42:03  89M1A  31.1 °C  74.2 %   08:42 
 1152423  2026-09-02 08:40:47  4529A  29.5 °C  62.6 %   08:40 
 1152422  2026-09-02 08:40:45  89M1B  31.4 °C  70.8 %   08:40 
 1152421  2026-09-02 08:40:16  20402  28.9 °C  47.6 %   08:40 
 1152420  2026-09-02 08:37:34  4529C  30.7 °C  49.5 %   08:37 
 1152419  2026-09-02 08:35:27  4529D  30.4 °C  69.9 %   08:35 
 1152418  2026-09-02 08:32:25  89M1A  30.7 °C  76.1 %   08:32 
 1152417  2026-09-02 08:31:06  89M1B  31.3 °C  70.5 %   08:31 
 1152416  2026-09-02 08:30:45  4529A  29.7 °C  65.5 %   08:30 
 1152415  2026-09-02 08:30:06  20402  31.0 °C  51.0 %   08:30 
 1152414  2026-09-02 08:27:31  4529C  30.6 °C  49.5 %   08:27 
 1152413  2026-09-02 08:25:54  4529D  30.4 °C  69.8 %   08:25 
 1152412  2026-09-02 08:22:47  89M1A  30.4 °C  76.2 %   08:22 
 1152411  2026-09-02 08:21:28  89M1B  31.2 °C  70.2 %   08:21 
 1152410  2026-09-02 08:20:42  4529A  29.8 °C  62.9 %   08:20 
 1152409  2026-09-02 08:17:29  4529C  30.6 °C  49.6 %   08:17 
 1152408  2026-09-02 08:16:22  4529D  30.4 °C  69.7 %   08:16 
 1152407  2026-09-02 08:13:09  89M1A  30.1 °C  77.5 %   08:13 
 1152406  2026-09-02 08:11:49  89M1B  31.3 °C  69.5 %   08:11 
 1152405  2026-09-02 08:10:40  4529A  29.4 °C  64.8 %   08:10 
 1152404  2026-09-02 08:09:49  20402  31.0 °C  51.0 %   08:09 
 1152403  2026-09-02 08:07:26  4529C  30.5 °C  49.6 %   08:07 
 1152402  2026-09-02 08:06:49  4529D  30.4 °C  69.4 %   08:06 
 1152401  2026-09-02 08:03:32  89M1A  30.3 °C  76.1 %   08:03 
 1152400  2026-09-02 08:02:11  89M1B  31.1 °C  69.2 %   08:02 
 1152399  2026-09-02 08:00:38  4529A  29.4 °C  65.1 %   08:00 
 1152398  2026-09-02 07:59:39  20402  30.9 °C  51.0 %   07:59 
 1152397  2026-09-02 07:57:24  4529C  30.6 °C  49.3 %   07:57 
 1152396  2026-09-02 07:57:16  4529D  30.3 °C  68.9 %   07:57 
 1152395  2026-09-02 07:53:54  89M1A  30.3 °C  76.2 %   07:53 
 1152394  2026-09-02 07:52:35  89M1B  31.2 °C  68.9 %   07:52 
 1152393  2026-09-02 07:50:30  4529A  29.7 °C  59.9 %   07:50 
 1152392  2026-09-02 07:49:26  20402  31.0 °C  50.9 %   07:49 
 1152391  2026-09-02 07:47:43  4529D  30.4 °C  68.5 %   07:47 
 1152390  2026-09-02 07:47:21  4529C  30.5 °C  49.0 %   07:47 
 1152389  2026-09-02 07:44:16  89M1A  29.9 °C  76.5 %   07:44 
 1152388  2026-09-02 07:42:52  89M1B  31.2 °C  69.0 %   07:42 
 1152387  2026-09-02 07:40:28  4529A  29.6 °C  64.0 %   07:40 
 1152386  2026-09-02 07:39:13  20402  31.0 °C  51.0 %   07:39 

Data every 20 minute.